User: anonymous   Login
Location: Unspecified
(0.0000°N, 0.0000°E)
Time: 01:01:24
(UTC+00:00)
Language:

LEMUR 2 ANUBHAVTHAKUR - Orbit

View from above orbital plane
View from above orbital plane
View from above satellite
View from above satellite

Ground track
Ground track

The orbit data is extracted from the following two-line orbital elements,

1 41873U 16062E   21023.80798797  .00001335  00000-0  67923-4 0  9994
2 41873  51.6787 310.3296 0007614 260.7124  99.2993 15.24125706231553
Epoch (UTC): 23 January 2021 19:23:30
Eccentricity: 0.0007614
inclination: 51.6787°
perigee height: 488 km
apogee height: 498 km
right ascension of ascending node: 310.3296°
argument of perigee: 260.7124°
revolutions per day: 15.24125706
mean anomaly at epoch: 99.2993°
orbit number at epoch: 23155

The dashed part of the orbit path shows where the satellite is in the earth's shadow,  

DLR